Terminal Aerodrome Forecast
Issued by NWS

Home | Current Version | Previous Version | Text Only | Print | Product List | Glossary On
Versions: 1 2 3 4 5 6 7 8 9 10 11 12 13 14
918
FTUS44 KTSA 140922 AAA
TAFMLC
TAF AMD
KMLC 140922Z 1409/1506 15011KT P6SM BKN025
     FM141000 15011KT P6SM BKN015
     FM141500 17006KT 4SM BR OVC007
     FM150000 02005KT 4SM BR OVC015=

USA.gov is the U.S. government's official web portal to all federal, state and local government web resources and services.